SCP
0 0 0 0 0 0 0 0 0 0 0 0 0 0 0 0 0 0 0 0 0 0 0 0 0 0 0 0 0 0 0 0 0 0 0 0 0 0 0 0 0 0 0 0 0 0 0 0 -0 -0 0 -0 0 -0
0 0 0 0 0 0 0 0 0 0 0 0 0 0 0 0 0 0 0 0 0 0 0 0 0 0 0 0 0 0 0 0 0 0 0 0 0 0 0 0 0 0 0 0 0 0 0 0 0 0 0 -0 -0 0
0 0 0 0 0 0 0 0 0 0 0 0 0 0 0 0 0 0 0 0 0 0 0 0 0 0 0 0 0 0 0 0 0 0 0 0 0 0 0 0 0 0 0 0 0 0 0 0 0 0 0 0 -0 0
0 0 0 0 0 0 0 0 0 0 0 0 0 0 0 0 0 0 0 0 0 0 0 0 0 0 0 0 0 0 0 0 0 0 0 0 0 0 0 0 0 0 0 0 0 0 -0 0 0 0 0 0 0 0
0 0 0 0 0 0 0 0 0 0 0 0 0 0 0 0 0 0 0 0 0 0 0 0 0 0 0 -0 -0 0 0 0 0 0 0 0 0 0 0 0 0 0 0 0 0 0 0 0 0 0 0 0 0 0
0 0 0 0 0 0 0 0 0 0 0 0 0 0 0 0 0 0 0 0 0 0 0 0 0 0 0 0 0 0 0 0 0 0 0 0 0 0 0 0 0 0 0 0 0 0 0 0 0 0 0 -0 0 0
0 0 0 0 0 0 0 0 0 0 0 0 0 0 0 0 0 0 0 0 0 0 0 0 0 0 0 0 0 0 0 0 0 0 0 0 0 0 0 0 0 0 0 0 0 0 0 0 -0 0 0 -0 0 0
0 0 0 0 0 0 0 0 0 0 0 0 0 0 0 0 0 0 0 0 0 0 0 0 0 0 0 0 0 0 0 0 0 0 0 0 0 0 0 0 0 -0 0 0 0 0 0 0 0 -0 -0 0 0 0
0 0 0 0 0 0 0 0 0 0 0 0 0 0 0 0 0 0 0 0 0 0 0 0 0 0 0 0 0 0 0 0 0 0 0 0 0 0 0 -0 -0 0 0 0 0 0 0 0 -0 -0 0 0 0 0
0 0 0 0 0 0 0 0 0 0 0 0 0 0 0 0 0 0 0 0 0 0 0 0 0 0 0 0 0 0 0 0 0 0 0 0 0 0 0 0 0 0 0 0 0 -0 0 -0 -0 -0 0 0 0 0
0 0 0 0 0 0 0 0 0 0 0 0 0 0 0 0 0 0 0 0 0 0 0 0 0 0 0 0 0 0 0 0 0 0 -0 -0 -0 0 0 0 0 0 0 0 0 0 0 -0 -0 0 0 0 0 0
0 0 0 0 0 0 0 0 0 0 0 0 0 0 0 0 0 0 0 0 0 0 0 0 0 0 0 0 0 0 0 0 0 0 0 -0 -0 -0 -0 0 0 0 0 0 0 0 0 -0 -0 0 0 0 0 0
0 0 0 0 0 0 0 0 0 0 0 0 0 0 0 0 0 0 0 0 0 0 0 0 0 0 0 0 0 0 0 0 -0 0 0 0 0 -0 -0 -0 0 0 0 0 0 0 0 -0 -0 0 0 0 0 0
0 0 0 0 0 0 0 0 0 0 0 0 0 0 0 0 0 0 0 0 0 0 -0 -0 0 0 0 0 0 0 0 0 -0 0 -0 -0 0 -0 -0 -0 0 0 0 0 0 0 0 -0 -0 0 0 0 0 0
0 0 0 0 0 0 0 0 0 0 0 0 0 0 0 0 0 0 0 0 0 0 0 0 0 0 0 0 0 0 0 0 0 0 0 0 -0 -0 -0 -0 0 0 0 0 0 0 -0 -0 -0 0 -0 0 0 0
0 0 0 0 0 0 0 0 0 0 0 0 0 0 0 0 0 0 0 0 0 0 0 0 0 0 0 0 0 0 0 0 0 -0 -0 -0 -0 -0 -0 -0 0 0 0 0 0 0 -0 -0 -0 0 -0 0 0 0
0 0 0 0 0 0 0 0 0 0 0 0 0 0 0 0 0 0 0 0 0 0 0 0 0 0 0 0 0 0 0 0 -0 0 -0 -0 -0 -0 -0 -0 0 0 0 0 0 0 -0 -0 -0 0 -0 0 0 0
0 0 0 0 0 0 0 0 0 0 0 0 0 0 0 0 0 0 0 0 0 0 0 0 0 0 0 0 0 0 0 0 0 -0 -0 -0 -0 -0 -0 -0 0 0 0 0 0 -0 -0 -0 -0 -0 0 0 0 0
0 0 0 0 0 0 0 0 0 0 0 0 0 0 0 0 0 0 0 0 0 0 0 0 0 0 0 0 0 0 -0 -0 -0 0 0 -0 -0 -0 0 -0 -0 0 0 0 0 -0 -0 -0 -0 -0 0 0 0 0
0 0 0 0 0 0 0 0 0 0 0 0 0 0 0 0 0 0 0 0 0 0 0 0 0 0 0 0 0 0 -0 -0 -0 0 0 0 -0 -0 -0 -0 -0 -0 0 0 0 0 -0 -0 -0 0 0 0 0 -0
0 0 0 0 0 0 0 0 0 0 0 0 0 0 0 0 0 0 0 0 0 0 0 0 0 0 -0 -0 -0 -0 0 0 0 0 0 -0 0 0 -0 -0 -0 0 -0 0 0 0 -0 -0 -0 0 0 0 0 0
0 0 0 0 0 0 0 0 0 0 0 0 0 0 0 0 0 0 0 0 0 0 0 0 0 0 0 0 0 0 0 0 0 0 0 0 0 0 0 -0 -0 -0 0 0 0 0 -0 -0 -0 0 0 0 0 0
0 0 0 0 0 0 0 0 0 0 0 0 0 0 0 0 0 0 0 0 0 -0 0 0 0 0 -0 -0 0 0 0 0 0 0 0 -0 -0 -0 0 0 0 0 0 0 0 0 0 0 0 0 0 0 0 0
0 0 0 0 0 0 0 0 0 0 0 0 0 0 0 0 0 0 -0 -0 0 0 0 0 0 0 0 -0 0 0 0 0 0 0 0 0 0 0 0 0 0 0 0 0 0 0 0 0 0 0 0 0 -0 -0
0 0 0 0 0 0 0 0 0 0 0 0 0 0 0 0 0 0 0 0 0 0 0 0 0 0 0 0 0 0 0 0 0 0 0 0 0 0 0 0 0 0 0 0 0 0 0 0 0 0 0 0 0 0
-0 -0 -0 -0 -0 0 0 0 -0 0 0 -0 -0 -0 -0 -0 -0 -0 0 0 0 0 0 0 0 0 0 0 0 0 0 0 -0 0 0 0 0 0 0 0 0 0 0 0 0 0 0 0 0 0 0 0 0 0
-0 -0 -0 0 0 0 0 0 0 -0 0 0 -0 -0 -0 -0 -0 0 0 0 0 -0 -0 -0 -0 -0 -0 -0 -0 0 -0 -0 -0 -0 0 0 0 0 0 0 0 0 0 0 0 0 0 0 0 0 0 0 0 0
-0 0 0 0 0 0 0 0 0 0 0 -0 -0 0 0 0 0 -0 -0 -0 -0 -0 -0 -0 -0 -0 -0 -0 -0 -0 -0 -0 0 0 0 0 0 0 0 0 0 0 0 0 0 0 0 0 0 0 0 0 0 0
0 0 0 0 0 0 0 0 0 0 0 0 0 0 0 0 0 -0 0 0 0 -0 -0 0 0 0 0 0 0 0 0 0 0 0 0 0 0 0 0 0 0 0 0 0 0 -0 -0 -0 0 0 0 0 0 0
0 0 0 0 0 0 0 0 0 0 0 0 0 0 0 0 0 0 0 0 0 0 0 0 0 0 0 0 0 0 0 0 0 0 0 0 0 0 0 0 0 0 0 0 0 0 -0 -0 0 0 0 0 0 0
0 0 0 0 0 0 0 0 0 0 0 0 0 0 0 0 0 0 0 0 0 0 0 0 0 0 0 0 0 0 0 0 0 0 0 0 0 0 0 0 0 0 0 0 0 -0 -0 0 0 0 0 0 0 0
0 0 0 0 0 0 0 0 0 0 0 0 0 0 0 0 0 0 0 0 0 0 0 0 0 0 0 0 0 0 0 0 0 0 0 0 0 0 0 0 0 0 0 -0 -0 -0 -0 -0 -0 0 0 0 0 0
0 0 0 0 0 0 0 0 0 0 0 0 0 0 0 0 0 0 0 0 0 0 0 0 0 0 0 0 0 0 0 0 0 0 0 0 0 0 0 0 0 0 0 -0 -0 -0 -0 -0 -0 -0 0 0 0 0
Wind_Speed_500mb
42 41 40 38 41 40 48 49 45 39 34 35 37 36 37 37 38 30 12 13 17 13 59 23 10 18 30 22 6 15 20 9 9 10 4 6 4 5 7 21 14 7 4 5 7 8 13 47 41 6 13 54 45 52
41 41 44 45 49 42 41 42 37 32 31 34 34 34 35 34 34 36 30 19 25 31 58 71 77 66 57 40 47 12 10 11 8 4 2 3 6 4 6 10 8 8 4 11 8 12 39 53 38 28 31 38 53 59
42 42 42 48 42 40 40 38 34 31 32 33 31 32 33 35 35 36 39 36 36 19 49 32 21 10 21 26 7 16 20 19 14 20 8 3 10 6 4 10 12 10 18 9 19 10 16 50 40 40 48 53 59 59
47 42 47 41 41 41 37 34 33 32 32 31 30 32 33 34 35 35 37 38 34 13 12 15 19 52 49 59 65 58 57 53 46 39 17 7 6 16 8 13 15 22 18 12 17 30 46 21 44 46 59 60 62 71
57 55 50 43 42 40 31 29 33 34 29 28 28 30 31 34 36 34 28 18 8 9 11 33 71 10 38 21 26 35 38 41 50 16 7 7 8 7 11 8 10 11 11 8 9 51 23 39 40 56 63 58 75 70
54 56 50 42 34 31 30 31 32 31 28 26 26 29 31 32 36 34 4 7 6 10 16 8 28 29 14 25 21 22 28 47 43 18 7 10 7 10 7 7 13 15 35 56 22 37 43 47 55 62 58 72 68 66
43 44 42 39 35 35 32 31 30 28 26 24 26 28 30 31 35 21 12 7 13 17 10 16 17 18 39 30 22 26 24 33 25 15 16 16 16 16 6 12 20 49 50 50 28 38 36 43 61 67 69 67 66 65
41 43 41 34 35 32 31 30 26 25 22 23 26 28 31 32 32 23 1 5 23 34 12 7 11 17 20 14 14 26 16 19 21 19 6 8 5 15 8 10 28 32 47 33 28 36 42 51 61 66 63 65 66 63
32 33 34 34 31 30 29 26 23 21 19 20 25 25 25 5 3 5 13 15 15 15 8 10 5 8 20 24 15 12 9 4 4 8 8 8 4 8 10 34 34 38 38 32 38 46 50 51 58 60 65 62 61 61
41 43 40 37 32 29 26 23 20 16 13 13 14 4 3 3 6 20 12 7 11 12 14 11 11 7 15 10 9 12 8 4 5 8 8 6 5 24 30 22 34 45 22 28 46 45 46 48 52 59 59 55 52 50
43 40 40 31 29 27 24 21 17 11 12 7 5 7 10 7 13 7 7 10 12 8 13 16 23 11 13 7 7 5 5 6 5 2 3 3 5 10 32 38 36 5 18 36 33 33 34 42 47 56 56 53 49 45
40 35 30 29 29 26 23 19 15 13 10 9 10 18 11 5 8 6 6 7 9 8 11 11 18 28 15 11 1 5 3 5 9 1 4 4 6 28 44 38 21 8 29 41 34 36 35 39 42 51 48 48 48 44
31 30 30 31 28 25 22 18 15 12 8 5 3 3 6 6 3 9 7 6 5 5 9 11 13 13 6 15 4 2 4 10 6 1 3 5 19 39 45 29 7 17 32 44 33 34 34 37 42 48 48 44 45 44
31 30 31 29 26 24 21 18 15 11 9 7 7 7 9 9 9 10 8 6 14 12 36 37 20 12 7 6 7 6 9 4 3 4 5 8 31 39 39 27 6 18 33 45 32 33 31 38 37 46 49 39 41 44
31 30 28 27 26 24 21 21 18 12 7 8 9 9 11 25 20 18 10 17 10 16 22 20 14 21 7 5 6 4 6 3 9 5 5 22 32 35 36 26 13 21 31 39 33 28 31 35 36 38 46 35 35 39
27 27 29 25 25 23 23 22 17 11 6 9 14 10 22 14 9 20 19 21 30 18 12 6 6 7 9 7 7 6 6 5 7 8 17 17 23 33 34 29 17 21 29 32 34 25 26 31 37 33 42 32 32 33
30 22 18 26 28 26 24 23 16 11 11 11 16 28 43 44 37 27 29 31 24 17 4 3 6 5 10 5 2 6 8 6 14 26 17 14 19 29 30 22 17 25 32 26 31 28 22 26 37 36 41 30 28 29
23 22 24 24 32 32 29 25 7 11 16 24 17 33 36 38 43 42 39 31 29 25 9 8 3 5 7 5 2 2 6 15 25 38 13 18 16 22 23 26 23 27 34 24 26 30 20 26 35 32 36 25 27 27
27 27 23 27 34 25 17 17 18 10 21 28 36 48 46 42 46 46 46 43 37 24 10 12 8 7 9 8 5 17 11 14 29 30 32 17 15 17 24 29 28 25 27 17 19 31 18 18 27 31 38 37 28 25
28 23 30 34 32 13 7 8 15 13 11 14 28 40 45 42 42 45 44 42 34 30 17 11 11 26 39 54 47 41 32 29 24 21 31 27 14 15 31 29 24 23 22 12 12 20 27 13 14 29 32 38 39 24
28 13 17 29 37 23 7 8 12 13 15 16 21 26 28 26 33 36 40 39 40 33 23 40 52 63 61 62 59 49 47 39 39 38 36 36 27 35 29 21 17 18 16 12 7 10 22 30 19 19 24 37 45 40
22 19 16 16 9 10 15 18 15 13 16 26 40 43 25 16 30 38 39 36 31 45 50 54 58 55 58 55 43 40 47 54 51 43 34 31 29 20 28 23 17 15 11 15 6 6 19 25 32 21 21 25 22 34
19 22 12 13 12 11 13 14 13 11 7 8 7 5 9 10 17 34 12 25 37 41 44 49 55 56 60 59 56 55 52 54 50 44 40 37 36 31 28 24 14 18 11 10 3 8 17 16 18 29 28 23 22 23
13 15 10 11 19 9 10 12 15 11 12 8 5 7 7 10 13 8 9 27 52 48 46 39 33 46 55 62 64 56 45 48 45 34 33 39 36 30 25 24 24 22 11 14 7 6 10 8 8 14 20 27 21 21
6 10 10 12 14 11 7 7 12 9 9 11 7 7 9 8 5 6 14 54 54 36 29 29 21 17 5 5 19 16 16 15 9 8 16 28 18 16 20 22 22 14 11 11 15 11 6 3 4 5 6 8 17 25
9 15 21 19 11 11 10 6 9 14 6 8 12 11 10 7 7 10 7 1 14 17 9 7 6 5 4 6 10 12 16 13 15 16 18 13 21 24 21 19 14 21 21 22 22 18 12 11 8 8 4 5 3 8
9 13 24 25 17 17 9 17 26 9 8 8 6 3 6 8 11 4 10 11 11 6 9 12 19 30 39 41 35 31 27 30 28 33 29 22 19 20 19 20 23 16 16 23 23 29 19 16 9 5 8 8 5 1
21 12 11 26 24 27 9 8 9 11 8 13 5 8 7 6 4 1 5 14 22 42 63 70 68 64 60 59 52 38 30 31 28 26 29 27 26 18 18 20 9 10 9 20 18 18 26 14 11 8 6 10 6 6
16 22 16 23 26 16 16 15 13 18 19 17 7 6 8 11 31 50 68 55 44 45 47 44 37 31 31 26 21 22 19 20 14 13 20 20 13 19 20 17 18 16 13 18 17 25 26 20 6 11 10 10 8 6
14 25 15 12 9 10 15 16 10 15 20 27 22 19 29 52 50 29 34 37 20 11 4 3 12 16 18 26 30 27 21 18 16 21 22 16 13 22 22 27 32 25 12 9 12 30 27 23 18 18 16 12 12 9
10 6 8 7 10 24 34 29 29 23 20 16 24 31 30 23 19 44 51 34 35 37 35 27 24 22 23 19 17 18 16 17 20 22 18 16 11 12 22 34 35 32 17 24 19 17 14 14 15 15 16 12 8 6
8 13 10 6 9 19 24 5 12 11 5 2 7 10 6 8 19 49 52 40 37 33 29 27 23 24 20 15 23 21 19 24 17 14 14 17 21 18 32 18 14 12 24 34 25 21 17 15 21 13 13 14 8 8
9 12 15 8 5 7 11 5 5 1 11 16 24 32 28 13 15 45 55 44 44 40 41 37 38 35 27 25 24 16 19 19 13 12 32 36 26 35 30 17 23 31 33 35 33 33 20 16 28 24 21 18 16 16
Wind_Direction_500mb
271 273 275 283 286 289 294 294 297 296 303 315 323 330 334 338 338 347 348 299 325 263 292 289 262 233 286 305 219 309 339 357 13 32 53 305 307 309 332 303 280 293 298 319 312 260 285 356 350 326 276 297 299 298
260 269 274 275 286 284 285 289 289 290 300 309 318 325 327 331 333 331 334 318 289 266 271 287 283 278 268 277 261 252 245 296 266 78 338 288 310 288 225 281 301 300 167 286 242 251 291 311 300 299 302 298 308 307
261 266 273 283 272 279 280 281 281 287 296 304 312 317 322 324 326 327 324 328 323 296 306 291 289 227 234 280 222 240 259 241 236 262 241 213 246 135 239 251 267 266 262 250 310 269 278 312 319 314 320 315 311 309
264 268 256 273 281 281 272 276 280 285 292 301 310 314 318 319 321 323 321 313 300 289 282 288 291 289 278 267 261 271 277 254 254 273 228 209 221 193 235 241 261 275 303 266 261 279 311 285 318 317 323 322 319 319
264 257 252 269 275 268 260 270 280 282 287 298 303 308 312 314 315 321 318 306 202 266 278 293 307 308 311 273 263 256 270 259 239 211 183 224 219 240 252 261 258 202 229 286 291 300 293 297 312 323 327 324 326 322
257 249 249 254 247 247 263 275 276 280 284 291 299 304 307 311 314 332 322 240 237 301 304 315 299 312 19 353 271 257 255 250 237 209 204 226 205 203 259 255 247 271 305 299 283 309 310 315 323 329 325 327 326 324
251 245 237 238 243 254 259 265 269 274 278 286 292 297 301 304 304 306 266 260 237 281 286 302 293 293 326 338 323 273 299 265 240 238 209 220 219 208 251 269 291 303 307 315 321 324 320 324 322 329 330 330 331 334
240 228 224 234 249 250 259 260 262 268 276 282 288 293 295 294 297 303 348 301 230 255 256 272 279 301 347 342 334 323 299 247 224 216 205 221 215 207 257 325 325 317 322 320 318 326 326 322 327 332 334 333 336 333
219 233 238 239 250 252 251 250 254 263 273 280 286 296 296 289 247 312 313 280 259 234 254 233 261 287 323 328 299 291 285 320 192 191 227 171 227 235 321 308 311 304 322 303 318 336 339 336 334 336 335 336 336 336
233 241 243 249 246 236 234 238 248 260 265 271 296 256 221 176 279 293 274 217 210 210 228 252 241 266 293 285 297 322 315 289 314 239 161 32 294 270 310 312 297 324 317 319 337 342 339 338 340 338 336 343 340 346
230 232 245 235 220 219 221 227 236 234 214 225 235 239 221 261 275 239 240 202 191 233 222 242 236 230 268 208 237 314 296 301 309 340 118 222 266 267 334 339 356 343 321 337 343 340 337 340 339 337 344 348 349 358
228 222 217 204 205 209 214 218 219 217 213 212 267 287 296 245 229 244 228 205 203 234 217 215 245 239 256 237 257 335 305 303 260 3 93 287 265 328 350 358 354 319 344 351 349 347 339 346 348 346 350 352 358 4
199 200 197 197 200 203 208 208 211 210 215 195 209 277 236 239 47 219 228 230 248 250 322 314 316 297 250 217 167 123 251 233 281 313 352 270 333 357 358 8 312 343 359 355 350 349 347 352 354 353 357 3 11 20
197 192 192 195 196 199 201 200 195 185 167 175 206 289 192 214 223 199 224 223 297 308 334 327 282 270 237 175 178 202 233 237 250 360 5 309 335 356 356 7 263 2 1 3 356 352 353 350 358 356 5 13 23 35
190 190 191 192 193 195 194 186 183 173 163 219 222 235 227 229 248 279 284 311 323 329 324 329 292 239 263 261 231 265 265 53 43 289 252 311 317 350 356 9 317 355 0 10 8 357 359 4 9 358 10 23 34 39
179 184 198 190 186 185 183 184 181 184 219 229 236 254 271 294 286 339 342 337 346 327 340 325 293 280 229 205 222 234 78 100 253 235 298 310 339 359 359 13 339 347 354 6 17 9 6 10 16 3 7 27 37 39
191 199 186 196 196 194 192 192 191 211 223 230 242 245 257 275 278 291 309 315 327 327 137 97 261 266 309 271 142 105 155 221 338 332 340 331 341 346 355 19 348 345 346 354 18 20 17 13 20 18 16 29 40 52
169 168 180 180 176 177 186 190 221 236 234 242 251 251 252 263 279 286 290 292 295 296 221 198 272 275 292 261 154 189 41 356 355 356 355 341 341 349 11 10 350 1 343 336 10 17 21 32 27 30 20 46 54 68
168 171 174 174 177 171 185 206 212 258 243 245 253 255 258 269 277 279 280 281 276 260 207 172 207 221 221 256 357 317 313 325 331 331 328 325 341 354 357 350 347 344 341 334 9 19 33 36 27 34 35 41 52 60
180 180 181 176 185 189 234 233 202 245 252 236 249 262 269 268 273 271 271 267 249 256 216 193 213 237 265 286 290 289 294 300 299 292 306 311 309 323 331 341 344 338 348 334 354 28 43 59 35 33 40 39 48 57
187 180 180 199 198 208 266 249 241 242 257 244 268 288 273 271 274 275 274 266 247 231 225 239 248 253 258 262 269 279 280 280 283 277 282 290 310 299 320 317 339 329 7 353 341 38 60 59 72 56 50 55 51 58
189 185 167 173 180 215 248 238 234 280 285 266 278 274 263 245 259 266 269 262 246 244 247 253 260 268 274 279 276 273 272 270 275 274 279 280 299 298 313 300 324 321 1 6 332 76 75 61 64 78 68 58 46 50
158 179 184 187 201 231 253 232 228 223 232 261 254 286 270 250 245 276 241 232 256 270 270 269 270 271 265 271 272 272 274 272 273 263 261 263 268 282 290 299 286 301 344 358 269 80 75 60 71 70 76 77 64 68
173 180 200 205 208 251 246 217 218 232 222 230 234 245 257 235 247 248 252 260 275 287 284 279 274 268 267 263 263 261 269 267 262 257 264 259 261 271 263 287 301 302 243 285 242 222 68 60 80 77 74 73 77 73
203 219 196 226 215 226 239 232 215 204 237 209 228 256 269 296 255 252 271 273 271 273 238 238 253 270 269 199 200 188 170 170 190 265 269 265 263 258 275 279 286 252 197 228 217 189 120 84 82 77 60 69 70 75
219 212 196 202 222 209 214 243 224 200 258 232 235 242 237 202 231 241 233 0 162 172 191 229 248 211 174 25 318 269 230 229 234 258 251 281 279 257 273 271 271 212 237 227 222 205 172 152 126 99 127 66 63 91
235 234 218 219 235 230 265 269 270 285 247 238 234 219 237 233 230 205 123 112 118 143 223 272 288 283 287 291 283 287 270 256 268 263 259 254 246 248 249 273 283 258 191 194 218 224 209 173 166 141 89 73 34 239
230 257 233 229 224 237 239 228 223 220 229 236 234 203 220 247 268 307 223 232 262 275 282 285 284 280 280 279 276 271 252 249 261 236 235 241 241 243 253 252 236 183 215 204 228 223 208 161 115 161 157 109 96 74
228 227 246 251 259 250 233 221 223 218 217 209 199 215 254 255 274 284 289 291 287 282 278 276 271 262 258 248 220 215 215 185 194 207 213 210 230 229 188 211 199 173 136 151 169 195 182 161 159 163 151 112 106 110
237 227 224 240 232 236 227 220 241 242 252 242 242 255 269 281 302 313 330 357 353 340 45 76 192 195 174 144 135 148 160 179 172 175 188 216 210 203 221 202 189 183 194 203 135 156 167 177 151 150 156 147 122 123
247 222 244 256 268 270 282 292 297 286 267 262 252 251 265 283 331 23 32 64 59 66 72 83 79 94 94 106 130 148 149 163 181 192 209 229 226 204 200 193 190 194 201 210 163 143 158 175 169 165 154 143 125 100
212 197 206 238 267 299 317 345 343 337 353 33 23 51 33 359 15 26 44 51 58 63 72 81 96 103 114 109 132 141 149 130 128 156 187 195 191 190 180 173 158 167 190 196 193 174 168 194 191 168 165 183 190 156
205 210 226 263 238 250 258 271 302 17 84 62 33 29 37 41 34 16 36 61 62 74 83 97 97 105 108 130 135 124 128 147 161 184 154 132 128 158 174 182 175 169 162 161 176 180 170 165 178 179 184 185 177 177
Wind_Speed_850mb
42 41 40 38 41 40 48 49 45 39 34 35 37 36 37 37 38 30 12 13 17 13 59 23 10 18 30 22 6 15 20 9 9 10 4 6 4 5 7 21 14 7 4 5 7 8 13 47 41 6 13 54 45 52
41 41 44 45 49 42 41 42 37 32 31 34 34 34 35 34 34 36 30 19 25 31 58 71 77 66 57 40 47 12 10 11 8 4 2 3 6 4 6 10 8 8 4 11 8 12 39 53 38 28 31 38 53 59
42 42 42 48 42 40 40 38 34 31 32 33 31 32 33 35 35 36 39 36 36 19 49 32 21 10 21 26 7 16 20 19 14 20 8 3 10 6 4 10 12 10 18 9 19 10 16 50 40 40 48 53 59 59
47 42 47 41 41 41 37 34 33 32 32 31 30 32 33 34 35 35 37 38 34 13 12 15 19 52 49 59 65 58 57 53 46 39 17 7 6 16 8 13 15 22 18 12 17 30 46 21 44 46 59 60 62 71
57 55 50 43 42 40 31 29 33 34 29 28 28 30 31 34 36 34 28 18 8 9 11 33 71 10 38 21 26 35 38 41 50 16 7 7 8 7 11 8 10 11 11 8 9 51 23 39 40 56 63 58 75 70
54 56 50 42 34 31 30 31 32 31 28 26 26 29 31 32 36 34 4 7 6 10 16 8 28 29 14 25 21 22 28 47 43 18 7 10 7 10 7 7 13 15 35 56 22 37 43 47 55 62 58 72 68 66
43 44 42 39 35 35 32 31 30 28 26 24 26 28 30 31 35 21 12 7 13 17 10 16 17 18 39 30 22 26 24 33 25 15 16 16 16 16 6 12 20 49 50 50 28 38 36 43 61 67 69 67 66 65
41 43 41 34 35 32 31 30 26 25 22 23 26 28 31 32 32 23 1 5 23 34 12 7 11 17 20 14 14 26 16 19 21 19 6 8 5 15 8 10 28 32 47 33 28 36 42 51 61 66 63 65 66 63
32 33 34 34 31 30 29 26 23 21 19 20 25 25 25 5 3 5 13 15 15 15 8 10 5 8 20 24 15 12 9 4 4 8 8 8 4 8 10 34 34 38 38 32 38 46 50 51 58 60 65 62 61 61
41 43 40 37 32 29 26 23 20 16 13 13 14 4 3 3 6 20 12 7 11 12 14 11 11 7 15 10 9 12 8 4 5 8 8 6 5 24 30 22 34 45 22 28 46 45 46 48 52 59 59 55 52 50
43 40 40 31 29 27 24 21 17 11 12 7 5 7 10 7 13 7 7 10 12 8 13 16 23 11 13 7 7 5 5 6 5 2 3 3 5 10 32 38 36 5 18 36 33 33 34 42 47 56 56 53 49 45
40 35 30 29 29 26 23 19 15 13 10 9 10 18 11 5 8 6 6 7 9 8 11 11 18 28 15 11 1 5 3 5 9 1 4 4 6 28 44 38 21 8 29 41 34 36 35 39 42 51 48 48 48 44
31 30 30 31 28 25 22 18 15 12 8 5 3 3 6 6 3 9 7 6 5 5 9 11 13 13 6 15 4 2 4 10 6 1 3 5 19 39 45 29 7 17 32 44 33 34 34 37 42 48 48 44 45 44
31 30 31 29 26 24 21 18 15 11 9 7 7 7 9 9 9 10 8 6 14 12 36 37 20 12 7 6 7 6 9 4 3 4 5 8 31 39 39 27 6 18 33 45 32 33 31 38 37 46 49 39 41 44
31 30 28 27 26 24 21 21 18 12 7 8 9 9 11 25 20 18 10 17 10 16 22 20 14 21 7 5 6 4 6 3 9 5 5 22 32 35 36 26 13 21 31 39 33 28 31 35 36 38 46 35 35 39
27 27 29 25 25 23 23 22 17 11 6 9 14 10 22 14 9 20 19 21 30 18 12 6 6 7 9 7 7 6 6 5 7 8 17 17 23 33 34 29 17 21 29 32 34 25 26 31 37 33 42 32 32 33
30 22 18 26 28 26 24 23 16 11 11 11 16 28 43 44 37 27 29 31 24 17 4 3 6 5 10 5 2 6 8 6 14 26 17 14 19 29 30 22 17 25 32 26 31 28 22 26 37 36 41 30 28 29
23 22 24 24 32 32 29 25 7 11 16 24 17 33 36 38 43 42 39 31 29 25 9 8 3 5 7 5 2 2 6 15 25 38 13 18 16 22 23 26 23 27 34 24 26 30 20 26 35 32 36 25 27 27
27 27 23 27 34 25 17 17 18 10 21 28 36 48 46 42 46 46 46 43 37 24 10 12 8 7 9 8 5 17 11 14 29 30 32 17 15 17 24 29 28 25 27 17 19 31 18 18 27 31 38 37 28 25
28 23 30 34 32 13 7 8 15 13 11 14 28 40 45 42 42 45 44 42 34 30 17 11 11 26 39 54 47 41 32 29 24 21 31 27 14 15 31 29 24 23 22 12 12 20 27 13 14 29 32 38 39 24
28 13 17 29 37 23 7 8 12 13 15 16 21 26 28 26 33 36 40 39 40 33 23 40 52 63 61 62 59 49 47 39 39 38 36 36 27 35 29 21 17 18 16 12 7 10 22 30 19 19 24 37 45 40
22 19 16 16 9 10 15 18 15 13 16 26 40 43 25 16 30 38 39 36 31 45 50 54 58 55 58 55 43 40 47 54 51 43 34 31 29 20 28 23 17 15 11 15 6 6 19 25 32 21 21 25 22 34
19 22 12 13 12 11 13 14 13 11 7 8 7 5 9 10 17 34 12 25 37 41 44 49 55 56 60 59 56 55 52 54 50 44 40 37 36 31 28 24 14 18 11 10 3 8 17 16 18 29 28 23 22 23
13 15 10 11 19 9 10 12 15 11 12 8 5 7 7 10 13 8 9 27 52 48 46 39 33 46 55 62 64 56 45 48 45 34 33 39 36 30 25 24 24 22 11 14 7 6 10 8 8 14 20 27 21 21
6 10 10 12 14 11 7 7 12 9 9 11 7 7 9 8 5 6 14 54 54 36 29 29 21 17 5 5 19 16 16 15 9 8 16 28 18 16 20 22 22 14 11 11 15 11 6 3 4 5 6 8 17 25
9 15 21 19 11 11 10 6 9 14 6 8 12 11 10 7 7 10 7 1 14 17 9 7 6 5 4 6 10 12 16 13 15 16 18 13 21 24 21 19 14 21 21 22 22 18 12 11 8 8 4 5 3 8
9 13 24 25 17 17 9 17 26 9 8 8 6 3 6 8 11 4 10 11 11 6 9 12 19 30 39 41 35 31 27 30 28 33 29 22 19 20 19 20 23 16 16 23 23 29 19 16 9 5 8 8 5 1
21 12 11 26 24 27 9 8 9 11 8 13 5 8 7 6 4 1 5 14 22 42 63 70 68 64 60 59 52 38 30 31 28 26 29 27 26 18 18 20 9 10 9 20 18 18 26 14 11 8 6 10 6 6
16 22 16 23 26 16 16 15 13 18 19 17 7 6 8 11 31 50 68 55 44 45 47 44 37 31 31 26 21 22 19 20 14 13 20 20 13 19 20 17 18 16 13 18 17 25 26 20 6 11 10 10 8 6
14 25 15 12 9 10 15 16 10 15 20 27 22 19 29 52 50 29 34 37 20 11 4 3 12 16 18 26 30 27 21 18 16 21 22 16 13 22 22 27 32 25 12 9 12 30 27 23 18 18 16 12 12 9
10 6 8 7 10 24 34 29 29 23 20 16 24 31 30 23 19 44 51 34 35 37 35 27 24 22 23 19 17 18 16 17 20 22 18 16 11 12 22 34 35 32 17 24 19 17 14 14 15 15 16 12 8 6
8 13 10 6 9 19 24 5 12 11 5 2 7 10 6 8 19 49 52 40 37 33 29 27 23 24 20 15 23 21 19 24 17 14 14 17 21 18 32 18 14 12 24 34 25 21 17 15 21 13 13 14 8 8
9 12 15 8 5 7 11 5 5 1 11 16 24 32 28 13 15 45 55 44 44 40 41 37 38 35 27 25 24 16 19 19 13 12 32 36 26 35 30 17 23 31 33 35 33 33 20 16 28 24 21 18 16 16
Wind_Direction_850mb
271 273 275 283 286 289 294 294 297 296 303 315 323 330 334 338 338 347 348 299 325 263 292 289 262 233 286 305 219 309 339 357 13 32 53 305 307 309 332 303 280 293 298 319 312 260 285 356 350 326 276 297 299 298
260 269 274 275 286 284 285 289 289 290 300 309 318 325 327 331 333 331 334 318 289 266 271 287 283 278 268 277 261 252 245 296 266 78 338 288 310 288 225 281 301 300 167 286 242 251 291 311 300 299 302 298 308 307
261 266 273 283 272 279 280 281 281 287 296 304 312 317 322 324 326 327 324 328 323 296 306 291 289 227 234 280 222 240 259 241 236 262 241 213 246 135 239 251 267 266 262 250 310 269 278 312 319 314 320 315 311 309
264 268 256 273 281 281 272 276 280 285 292 301 310 314 318 319 321 323 321 313 300 289 282 288 291 289 278 267 261 271 277 254 254 273 228 209 221 193 235 241 261 275 303 266 261 279 311 285 318 317 323 322 319 319
264 257 252 269 275 268 260 270 280 282 287 298 303 308 312 314 315 321 318 306 202 266 278 293 307 308 311 273 263 256 270 259 239 211 183 224 219 240 252 261 258 202 229 286 291 300 293 297 312 323 327 324 326 322
257 249 249 254 247 247 263 275 276 280 284 291 299 304 307 311 314 332 322 240 237 301 304 315 299 312 19 353 271 257 255 250 237 209 204 226 205 203 259 255 247 271 305 299 283 309 310 315 323 329 325 327 326 324
251 245 237 238 243 254 259 265 269 274 278 286 292 297 301 304 304 306 266 260 237 281 286 302 293 293 326 338 323 273 299 265 240 238 209 220 219 208 251 269 291 303 307 315 321 324 320 324 322 329 330 330 331 334
240 228 224 234 249 250 259 260 262 268 276 282 288 293 295 294 297 303 348 301 230 255 256 272 279 301 347 342 334 323 299 247 224 216 205 221 215 207 257 325 325 317 322 320 318 326 326 322 327 332 334 333 336 333
219 233 238 239 250 252 251 250 254 263 273 280 286 296 296 289 247 312 313 280 259 234 254 233 261 287 323 328 299 291 285 320 192 191 227 171 227 235 321 308 311 304 322 303 318 336 339 336 334 336 335 336 336 336
233 241 243 249 246 236 234 238 248 260 265 271 296 256 221 176 279 293 274 217 210 210 228 252 241 266 293 285 297 322 315 289 314 239 161 32 294 270 310 312 297 324 317 319 337 342 339 338 340 338 336 343 340 346
230 232 245 235 220 219 221 227 236 234 214 225 235 239 221 261 275 239 240 202 191 233 222 242 236 230 268 208 237 314 296 301 309 340 118 222 266 267 334 339 356 343 321 337 343 340 337 340 339 337 344 348 349 358
228 222 217 204 205 209 214 218 219 217 213 212 267 287 296 245 229 244 228 205 203 234 217 215 245 239 256 237 257 335 305 303 260 3 93 287 265 328 350 358 354 319 344 351 349 347 339 346 348 346 350 352 358 4
199 200 197 197 200 203 208 208 211 210 215 195 209 277 236 239 47 219 228 230 248 250 322 314 316 297 250 217 167 123 251 233 281 313 352 270 333 357 358 8 312 343 359 355 350 349 347 352 354 353 357 3 11 20
197 192 192 195 196 199 201 200 195 185 167 175 206 289 192 214 223 199 224 223 297 308 334 327 282 270 237 175 178 202 233 237 250 360 5 309 335 356 356 7 263 2 1 3 356 352 353 350 358 356 5 13 23 35
190 190 191 192 193 195 194 186 183 173 163 219 222 235 227 229 248 279 284 311 323 329 324 329 292 239 263 261 231 265 265 53 43 289 252 311 317 350 356 9 317 355 0 10 8 357 359 4 9 358 10 23 34 39
179 184 198 190 186 185 183 184 181 184 219 229 236 254 271 294 286 339 342 337 346 327 340 325 293 280 229 205 222 234 78 100 253 235 298 310 339 359 359 13 339 347 354 6 17 9 6 10 16 3 7 27 37 39
191 199 186 196 196 194 192 192 191 211 223 230 242 245 257 275 278 291 309 315 327 327 137 97 261 266 309 271 142 105 155 221 338 332 340 331 341 346 355 19 348 345 346 354 18 20 17 13 20 18 16 29 40 52
169 168 180 180 176 177 186 190 221 236 234 242 251 251 252 263 279 286 290 292 295 296 221 198 272 275 292 261 154 189 41 356 355 356 355 341 341 349 11 10 350 1 343 336 10 17 21 32 27 30 20 46 54 68
168 171 174 174 177 171 185 206 212 258 243 245 253 255 258 269 277 279 280 281 276 260 207 172 207 221 221 256 357 317 313 325 331 331 328 325 341 354 357 350 347 344 341 334 9 19 33 36 27 34 35 41 52 60
180 180 181 176 185 189 234 233 202 245 252 236 249 262 269 268 273 271 271 267 249 256 216 193 213 237 265 286 290 289 294 300 299 292 306 311 309 323 331 341 344 338 348 334 354 28 43 59 35 33 40 39 48 57
187 180 180 199 198 208 266 249 241 242 257 244 268 288 273 271 274 275 274 266 247 231 225 239 248 253 258 262 269 279 280 280 283 277 282 290 310 299 320 317 339 329 7 353 341 38 60 59 72 56 50 55 51 58
189 185 167 173 180 215 248 238 234 280 285 266 278 274 263 245 259 266 269 262 246 244 247 253 260 268 274 279 276 273 272 270 275 274 279 280 299 298 313 300 324 321 1 6 332 76 75 61 64 78 68 58 46 50
158 179 184 187 201 231 253 232 228 223 232 261 254 286 270 250 245 276 241 232 256 270 270 269 270 271 265 271 272 272 274 272 273 263 261 263 268 282 290 299 286 301 344 358 269 80 75 60 71 70 76 77 64 68
173 180 200 205 208 251 246 217 218 232 222 230 234 245 257 235 247 248 252 260 275 287 284 279 274 268 267 263 263 261 269 267 262 257 264 259 261 271 263 287 301 302 243 285 242 222 68 60 80 77 74 73 77 73
203 219 196 226 215 226 239 232 215 204 237 209 228 256 269 296 255 252 271 273 271 273 238 238 253 270 269 199 200 188 170 170 190 265 269 265 263 258 275 279 286 252 197 228 217 189 120 84 82 77 60 69 70 75
219 212 196 202 222 209 214 243 224 200 258 232 235 242 237 202 231 241 233 0 162 172 191 229 248 211 174 25 318 269 230 229 234 258 251 281 279 257 273 271 271 212 237 227 222 205 172 152 126 99 127 66 63 91
235 234 218 219 235 230 265 269 270 285 247 238 234 219 237 233 230 205 123 112 118 143 223 272 288 283 287 291 283 287 270 256 268 263 259 254 246 248 249 273 283 258 191 194 218 224 209 173 166 141 89 73 34 239
230 257 233 229 224 237 239 228 223 220 229 236 234 203 220 247 268 307 223 232 262 275 282 285 284 280 280 279 276 271 252 249 261 236 235 241 241 243 253 252 236 183 215 204 228 223 208 161 115 161 157 109 96 74
228 227 246 251 259 250 233 221 223 218 217 209 199 215 254 255 274 284 289 291 287 282 278 276 271 262 258 248 220 215 215 185 194 207 213 210 230 229 188 211 199 173 136 151 169 195 182 161 159 163 151 112 106 110
237 227 224 240 232 236 227 220 241 242 252 242 242 255 269 281 302 313 330 357 353 340 45 76 192 195 174 144 135 148 160 179 172 175 188 216 210 203 221 202 189 183 194 203 135 156 167 177 151 150 156 147 122 123
247 222 244 256 268 270 282 292 297 286 267 262 252 251 265 283 331 23 32 64 59 66 72 83 79 94 94 106 130 148 149 163 181 192 209 229 226 204 200 193 190 194 201 210 163 143 158 175 169 165 154 143 125 100
212 197 206 238 267 299 317 345 343 337 353 33 23 51 33 359 15 26 44 51 58 63 72 81 96 103 114 109 132 141 149 130 128 156 187 195 191 190 180 173 158 167 190 196 193 174 168 194 191 168 165 183 190 156
205 210 226 263 238 250 258 271 302 17 84 62 33 29 37 41 34 16 36 61 62 74 83 97 97 105 108 130 135 124 128 147 161 184 154 132 128 158 174 182 175 169 162 161 176 180 170 165 178 179 184 185 177 177